,,PA_Meas_PMT16A,,PR_Meas_QMR101_102,,RH_Meas_QMH101,,SR_Meas_QMS101,,TA_Meas_QMH101,,GenWind,,GenWind,
time,status,PA,status,PR,status,RH,status,SR,status,TA,status,DirAvg,status,SpdAvg,
2013-07-27, 00:00:04,VALID,919.206,VALID,0,VALID,97.3891,VALID,0,VALID,17.3635,VALID,121,VALID,0,
2013-07-27, 00:01:04,VALID,919.174,VALID,0,VALID,97.3815,VALID,0,VALID,17.4025,VALID,121,VALID,0,
2013-07-27, 00:02:04,VALID,919.189,VALID,0,VALID,97.3968,VALID,0,VALID,17.4233,VALID,121,VALID,0,
2013-07-27, 00:03:05,VALID,919.128,VALID,0,VALID,97.4044,VALID,0,VALID,17.4233,VALID,121,VALID,0,
2013-07-27, 00:04:05,VALID,919.103,VALID,0,VALID,97.4044,VALID,0,VALID,17.4233,VALID,85,VALID,0,
2013-07-27, 00:05:05,VALID,919.081,VALID,0,VALID,97.412,VALID,0,VALID,17.4623,VALID,80,VALID,0,
2013-07-27, 00:06:05,VALID,919.121,VALID,0,VALID,97.4044,VALID,0,VALID,17.4818,VALID,80,VALID,0,
2013-07-27, 00:07:05,VALID,919.118,VALID,0,VALID,97.4273,VALID,0,VALID,17.461,VALID,80,VALID,0,
2013-07-27, 00:08:05,VALID,919.147,VALID,0,VALID,97.4044,VALID,0,VALID,17.4415,VALID,80,VALID,0,
2013-07-27, 00:09:05,VALID,919.121,VALID,0,VALID,97.412,VALID,0,VALID,17.4038,VALID,80,VALID,0,
2013-07-27, 00:10:05,VALID,919.121,VALID,0,VALID,97.412,VALID,0,VALID,17.4038,VALID,80,VALID,0,
2013-07-27, 00:11:05,VALID,919.117,VALID,0,VALID,97.4425,VALID,0,VALID,17.4038,VALID,84,VALID,0,
2013-07-27, 00:12:05,VALID,919.054,VALID,0,VALID,97.4273,VALID,0.107441,VALID,17.4025,VALID,96,VALID,0,
2013-07-27, 00:13:05,VALID,919.059,VALID,0,VALID,97.4349,VALID,0,VALID,17.383,VALID,96,VALID,0,
2013-07-27, 00:14:05,VALID,919.005,VALID,0,VALID,97.4349,VALID,0.107441,VALID,17.3441,VALID,96,VALID,0,
2013-07-27, 00:15:05,VALID,918.984,VALID,0,VALID,97.4196,VALID,0,VALID,17.383,VALID,96,VALID,0,
2013-07-27, 00:16:05,VALID,918.99,VALID,0,VALID,97.4501,VALID,0.107441,VALID,17.5013,VALID,96,VALID,0,
2013-07-27, 00:17:05,VALID,918.964,VALID,0,VALID,97.4501,VALID,0.107441,VALID,17.5194,VALID,96,VALID,0,
2013-07-27, 00:18:05,VALID,918.956,VALID,0,VALID,97.4501,VALID,0,VALID,17.5792,VALID,96,VALID,0,
2013-07-27, 00:19:05,VALID,918.936,VALID,0,VALID,97.4577,VALID,0,VALID,17.5584,VALID,96,VALID,0,
2013-07-27, 00:20:05,VALID,918.924,VALID,0,VALID,97.4501,VALID,0.107441,VALID,17.5389,VALID,96,VALID,0,
2013-07-27, 00:21:05,VALID,918.895,VALID,0,VALID,97.4654,VALID,0.107441,VALID,17.4805,VALID,96,VALID,0,
2013-07-27, 00:22:05,VALID,918.832,VALID,0,VALID,97.473,VALID,0,VALID,17.5013,VALID,96,VALID,0,
2013-07-27, 00:23:05,VALID,918.841,VALID,0,VALID,97.4501,VALID,0,VALID,17.3649,VALID,97,VALID,0,
2013-07-27, 00:24:05,VALID,918.867,VALID,0,VALID,97.4349,VALID,0,VALID,17.2285,VALID,96,VALID,0,
2013-07-27, 00:25:05,VALID,918.863,VALID,0,VALID,97.473,VALID,0,VALID,17.2077,VALID,96,VALID,0,
2013-07-27, 00:26:05,VALID,918.892,VALID,0,VALID,97.4577,VALID,0,VALID,17.2285,VALID,96,VALID,0,
2013-07-27, 00:27:05,VALID,918.887,VALID,0,VALID,97.4425,VALID,0,VALID,17.2856,VALID,96,VALID,0,
2013-07-27, 00:28:05,VALID,918.923,VALID,0,VALID,97.4577,VALID,0,VALID,17.4428,VALID,96,VALID,0,
2013-07-27, 00:29:05,VALID,918.913,VALID,0,VALID,97.4577,VALID,0,VALID,17.4805,VALID,96,VALID,0,
2013-07-27, 00:30:05,VALID,918.935,VALID,0,VALID,97.4654,VALID,0,VALID,17.4805,VALID,96,VALID,0,
2013-07-27, 00:31:05,VALID,918.97,VALID,0,VALID,97.4577,VALID,0,VALID,17.5194,VALID,96,VALID,0,
2013-07-27, 00:32:05,VALID,918.92,VALID,0,VALID,97.4501,VALID,0,VALID,17.4805,VALID,96,VALID,0,
2013-07-27, 00:33:05,VALID,918.936,VALID,0,VALID,97.473,VALID,0,VALID,17.4818,VALID,96,VALID,0,
2013-07-27, 00:34:05,VALID,918.941,VALID,0,VALID,97.4654,VALID,0,VALID,17.4428,VALID,96,VALID,0,
2013-07-27, 00:35:05,VALID,919.097,VALID,0,VALID,97.4654,VALID,0,VALID,17.4025,VALID,96,VALID,0,
2013-07-27, 00:36:05,VALID,919.036,VALID,0,VALID,97.473,VALID,0,VALID,17.4038,VALID,96,VALID,0,
2013-07-27, 00:37:05,VALID,918.966,VALID,0,VALID,97.473,VALID,0,VALID,17.3844,VALID,96,VALID,0,
2013-07-27, 00:38:05,VALID,918.945,VALID,0,VALID,97.4882,VALID,0,VALID,17.383,VALID,96,VALID,0,
2013-07-27, 00:39:05,VALID,919.078,VALID,0,VALID,97.4806,VALID,0,VALID,17.3649,VALID,96,VALID,0,
2013-07-27, 00:40:05,VALID,918.99,VALID,0,VALID,97.4577,VALID,0,VALID,17.3051,VALID,96,VALID,0,
2013-07-27, 00:41:05,VALID,919.053,VALID,0,VALID,97.4806,VALID,0,VALID,17.4052,VALID,96,VALID,0,
2013-07-27, 00:42:05,VALID,918.993,VALID,0,VALID,97.4959,VALID,0,VALID,17.4428,VALID,96,VALID,0,
2013-07-27, 00:43:05,VALID,919.265,VALID,0,VALID,97.5035,VALID,0,VALID,17.4428,VALID,96,VALID,0,
2013-07-27, 00:44:05,VALID,918.974,VALID,0,VALID,97.4806,VALID,0,VALID,17.5013,VALID,96,VALID,0,
2013-07-27, 00:45:05,VALID,919.011,VALID,0,VALID,97.4806,VALID,0.107441,VALID,17.4623,VALID,97,VALID,0,
2013-07-27, 00:46:05,VALID,919.105,VALID,0,VALID,97.5035,VALID,0,VALID,17.4623,VALID,97,VALID,0,
2013-07-27, 07:35:04,VALID,918.262,VALID,0,VALID,93.8976,VALID,132.045,VALID,18.5914,VALID,128,VALID,0,
2013-07-27, 07:36:04,VALID,918.259,VALID,0,VALID,93.8824,VALID,150.203,VALID,18.6513,VALID,137,VALID,0,
2013-07-27, 07:37:04,VALID,918.365,VALID,0,VALID,93.8366,VALID,161.377,VALID,18.6889,VALID,119,VALID,0,
2013-07-27, 07:38:04,VALID,918.384,VALID,0,VALID,93.7223,VALID,147.839,VALID,18.7279,VALID,112,VALID,0,
2013-07-27, 07:39:04,VALID,918.35,VALID,0,VALID,93.7756,VALID,131.508,VALID,18.8268,VALID,104,VALID,0,
2013-07-27, 07:40:04,VALID,918.39,VALID,0,VALID,93.6232,VALID,142.467,VALID,18.8853,VALID,95,VALID,0,
2013-07-27, 07:41:04,VALID,918.408,VALID,0,VALID,93.7299,VALID,166.104,VALID,18.9229,VALID,99,VALID,0,
2013-07-27, 07:42:04,VALID,918.503,VALID,0,VALID,93.7604,VALID,172.013,VALID,19.0008,VALID,94,VALID,0,
2013-07-27, 07:43:04,VALID,918.4,VALID,0,VALID,93.7147,VALID,181.576,VALID,19.0593,VALID,79,VALID,0,
2013-07-27, 07:44:04,VALID,918.45,VALID,0,VALID,93.6308,VALID,193.179,VALID,19.1178,VALID,75,VALID,0,
2013-07-27, 07:45:04,VALID,918.423,VALID,0,VALID,93.3182,VALID,210.907,VALID,19.1778,VALID,75,VALID,0,
2013-07-27, 07:46:04,VALID,918.503,VALID,0,VALID,92.655,VALID,204.138,VALID,19.1763,VALID,111,VALID,0,
2013-07-27, 07:47:04,VALID,918.504,VALID,0,VALID,92.1823,VALID,205.427,VALID,19.2363,VALID,134,VALID,0,
2013-07-27, 07:48:04,VALID,918.6,VALID,0,VALID,92.411,VALID,224.23,VALID,19.3113,VALID,94,VALID,0,
2013-07-27, 07:49:04,VALID,918.636,VALID,0,VALID,92.6093,VALID,223.37,VALID,19.4298,VALID,135,VALID,0,
2013-07-27, 07:50:04,VALID,918.539,VALID,0,VALID,92.2433,VALID,212.304,VALID,19.4673,VALID,122,VALID,0,
2013-07-27, 07:51:04,VALID,918.654,VALID,0,VALID,91.2447,VALID,190.278,VALID,19.4883,VALID,120,VALID,0,
2013-07-27, 07:52:04,VALID,918.639,VALID,0,VALID,91.1608,VALID,203.171,VALID,19.5468,VALID,72,VALID,0,
2013-07-27, 07:53:04,VALID,918.668,VALID,0,VALID,91.0388,VALID,197.907,VALID,19.5858,VALID,104,VALID,0,
2013-07-27, 07:54:04,VALID,918.6,VALID,0,VALID,90.307,VALID,196.188,VALID,19.6053,VALID,124,VALID,0,
2013-07-27, 07:55:04,VALID,918.672,VALID,0,VALID,89.6819,VALID,175.022,VALID,19.5858,VALID,117,VALID,0,
2013-07-27, 07:56:04,VALID,918.747,VALID,0,VALID,90.3756,VALID,168.468,VALID,19.6248,VALID,120,VALID,0,
2013-07-27, 07:57:04,VALID,918.499,VALID,0,VALID,90.2841,VALID,167.931,VALID,19.6263,VALID,133,VALID,0,
2013-07-27, 07:58:04,VALID,918.626,VALID,0,VALID,90.5357,VALID,178.245,VALID,19.6653,VALID,162,VALID,0,
2013-07-27, 07:59:04,VALID,918.688,VALID,0,VALID,90.0021,VALID,203.601,VALID,19.6458,VALID,139,VALID,0,
2013-07-27, 08:00:04,VALID,918.804,VALID,0,VALID,89.5065,VALID,170.509,VALID,19.6653,VALID,140,VALID,0,
2013-07-27, 08:01:04,VALID,918.614,VALID,0,VALID,89.3388,VALID,160.41,VALID,19.6653,VALID,140,VALID,0,
2013-07-27, 08:02:04,VALID,918.754,VALID,0,VALID,89.6971,VALID,158.691,VALID,19.6638,VALID,135,VALID,0,
2013-07-27, 08:03:04,VALID,918.628,VALID,0,VALID,89.3617,VALID,160.517,VALID,19.6653,VALID,143,VALID,0,
2013-07-27, 08:04:04,VALID,918.719,VALID,0,VALID,90.4213,VALID,165.567,VALID,19.6638,VALID,120,VALID,0,
2013-07-27, 08:05:04,VALID,918.964,VALID,0,VALID,90.8406,VALID,170.509,VALID,19.7028,VALID,142,VALID,0,
2013-07-27, 08:06:04,VALID,918.952,VALID,0,VALID,89.6819,VALID,173.732,VALID,19.6638,VALID,134,VALID,0,
2013-07-27, 08:07:04,VALID,918.972,VALID,0,VALID,90.1545,VALID,175.559,VALID,19.7238,VALID,114,VALID,0,
2013-07-27, 08:08:04,VALID,918.482,VALID,0,VALID,88.8585,VALID,176.741,VALID,19.6638,VALID,138,VALID,0,
2013-07-27, 08:09:04,VALID,918.8,VALID,0,VALID,88.9805,VALID,176.848,VALID,19.6848,VALID,115,VALID,0,
2013-07-27, 08:10:04,VALID,918.874,VALID,0,VALID,89.1559,VALID,175.774,VALID,19.6848,VALID,114,VALID,0,
2013-07-27, 08:11:04,VALID,919.07,VALID,0,VALID,89.9334,VALID,174.484,VALID,19.7433,VALID,110,VALID,0,
2013-07-27, 08:12:04,VALID,918.939,VALID,0,VALID,89.8648,VALID,174.27,VALID,19.7418,VALID,117,VALID,0,
2013-07-27, 08:13:04,VALID,918.871,VALID,0,VALID,90.3756,VALID,176.203,VALID,19.8408,VALID,117,VALID,0,
2013-07-27, 08:14:04,VALID,918.921,VALID,0,VALID,88.9729,VALID,180.716,VALID,19.8003,VALID,118,VALID,0,
2013-07-27, 08:15:04,VALID,919.562,VALID,0,VALID,88.1038,VALID,186.518,VALID,19.8213,VALID,130,VALID,0,
2013-07-27, 08:16:04,VALID,919.084,VALID,0,VALID,89.0567,VALID,189.956,VALID,19.8198,VALID,129,VALID,0,
2013-07-27, 08:17:04,VALID,919.044,VALID,0,VALID,89.0034,VALID,190.923,VALID,19.8588,VALID,143,VALID,0,
2013-07-27, 08:18:04,VALID,918.981,VALID,0,VALID,89.0872,VALID,188.667,VALID,19.8993,VALID,137,VALID,0,
2013-07-27, 08:19:04,VALID,918.875,VALID,0,VALID,89.4227,VALID,185.766,VALID,19.9758,VALID,133,VALID,0,
2013-07-27, 08:20:04,VALID,919.011,VALID,0,VALID,89.0796,VALID,183.617,VALID,20.0553,VALID,124,VALID,0,
2013-07-27, 08:21:04,VALID,919.056,VALID,0,VALID,88.3249,VALID,184.369,VALID,20.1139,VALID,157,VALID,0,
2013-07-27, 08:22:04,VALID,918.967,VALID,0,VALID,88.0505,VALID,188.344,VALID,20.1529,VALID,133,VALID,0,
2013-07-27, 08:23:04,VALID,919.045,VALID,0,VALID,87.1585,VALID,195.221,VALID,20.1708,VALID,175,VALID,0,
2013-07-27, 08:24:04,VALID,919.072,VALID,0,VALID,87.2729,VALID,205.535,VALID,20.2504,VALID,167,VALID,0,
2013-07-27, 08:25:04,VALID,918.928,VALID,0,VALID,86.1522,VALID,216.279,VALID,20.2684,VALID,155,VALID,0,
2013-07-27, 08:26:04,VALID,918.612,VALID,0,VALID,86.0531,VALID,223.8,VALID,20.3269,VALID,146,VALID,0,
2013-07-27, 08:27:04,VALID,918.989,VALID,0,VALID,85.9616,VALID,227.56,VALID,20.4244,VALID,177,VALID,0,
2013-07-27, 08:28:04,VALID,919.131,VALID,0,VALID,86.2513,VALID,225.734,VALID,20.4829,VALID,159,VALID,0,
2013-07-27, 08:29:04,VALID,919.004,VALID,0,VALID,84.5437,VALID,219.825,VALID,20.5219,VALID,162,VALID,0,
2013-07-27, 08:30:04,VALID,919.007,VALID,0,VALID,83.9109,VALID,211.874,VALID,20.5235,VALID,161,VALID,0,
2013-07-27, 08:31:04,VALID,918.973,VALID,0,VALID,85.1841,VALID,201.774,VALID,20.543,VALID,162,VALID,0,
2013-07-27, 08:32:04,VALID,919.002,VALID,0,VALID,85.611,VALID,192.642,VALID,20.5804,VALID,165,VALID,0,
2013-07-27, 08:33:04,VALID,918.968,VALID,0,VALID,85.9921,VALID,183.939,VALID,20.5609,VALID,153,VALID,0,
2013-07-27, 08:34:04,VALID,918.966,VALID,0,VALID,86.6554,VALID,177.385,VALID,20.6194,VALID,153,VALID,0,
2013-07-27, 08:35:04,VALID,918.976,VALID,0,VALID,86.7697,VALID,173.41,VALID,20.678,VALID,144,VALID,0,
2013-07-27, 08:36:04,VALID,919.044,VALID,0,VALID,86.3504,VALID,172.98,VALID,20.6975,VALID,131,VALID,0,
2013-07-27, 08:37:04,VALID,918.987,VALID,0,VALID,85.771,VALID,174.914,VALID,20.678,VALID,148,VALID,0,
2013-07-27, 08:38:04,VALID,918.978,VALID,0,VALID,85.771,VALID,177.815,VALID,20.678,VALID,164,VALID,0,
2013-07-27, 08:39:04,VALID,919.016,VALID,0,VALID,85.0697,VALID,181.79,VALID,20.678,VALID,140,VALID,0,
2013-07-27, 08:40:04,VALID,919.068,VALID,0,VALID,85.2603,VALID,185.443,VALID,20.639,VALID,156,VALID,0,
2013-07-27, 08:41:04,VALID,918.964,VALID,0,VALID,85.7406,VALID,188.667,VALID,20.678,VALID,165,VALID,0,
2013-07-27, 08:42:04,VALID,919.004,VALID,0,VALID,85.367,VALID,191.997,VALID,20.6585,VALID,149,VALID,0,
2013-07-27, 08:43:04,VALID,919.026,VALID,0,VALID,85.8778,VALID,196.402,VALID,20.678,VALID,160,VALID,0,
2013-07-27, 08:44:04,VALID,919.138,VALID,0,VALID,86.3504,VALID,201.13,VALID,20.678,VALID,168,VALID,0,
2013-07-27, 08:45:04,VALID,919.073,VALID,0,VALID,85.3441,VALID,205.105,VALID,20.6585,VALID,172,VALID,0,
2013-07-27, 08:46:04,VALID,919.105,VALID,0,VALID,85.3213,VALID,206.824,VALID,20.639,VALID,162,VALID,0,
2013-07-27, 08:47:04,VALID,919.083,VALID,0,VALID,85.7101,VALID,205.857,VALID,20.5804,VALID,167,VALID,0,
2013-07-27, 08:48:04,VALID,919.105,VALID,0,VALID,86.4038,VALID,203.279,VALID,20.5219,VALID,186,VALID,0,
2013-07-27, 08:49:04,VALID,919.118,VALID,0,VALID,87.2271,VALID,200.593,VALID,20.5609,VALID,168,VALID,0,
2013-07-27, 08:50:04,VALID,918.97,VALID,0,VALID,87.5397,VALID,198.874,VALID,20.5609,VALID,150,VALID,0,
2013-07-27, 08:51:04,VALID,919.323,VALID,0,VALID,87.5168,VALID,198.121,VALID,20.5204,VALID,140,VALID,0,
2013-07-27, 08:52:04,VALID,919.107,VALID,0,VALID,87.4634,VALID,198.766,VALID,20.5219,VALID,158,VALID,0,
2013-07-27, 08:53:04,VALID,919.006,VALID,0,VALID,86.7926,VALID,200.27,VALID,20.5219,VALID,135,VALID,0,
2013-07-27, 08:54:04,VALID,919.056,VALID,0,VALID,87.3567,VALID,203.064,VALID,20.5609,VALID,157,VALID,0,
2013-07-27, 08:55:04,VALID,919.091,VALID,0,VALID,87.1661,VALID,205.75,VALID,20.5594,VALID,146,VALID,0,
2013-07-27, 08:56:04,VALID,918.957,VALID,0,VALID,87.4025,VALID,208.436,VALID,20.5789,VALID,121,VALID,0,
2013-07-27, 08:57:04,VALID,919.025,VALID,0,VALID,88.2487,VALID,211.981,VALID,20.6374,VALID,136,VALID,0,
2013-07-27, 08:58:04,VALID,919.022,VALID,0,VALID,87.067,VALID,215.42,VALID,20.6585,VALID,128,VALID,0,
2013-07-27, 08:59:04,VALID,918.967,VALID,0,VALID,87.5397,VALID,219.18,VALID,20.6585,VALID,102,VALID,0,
2013-07-27, 09:00:04,VALID,919.004,VALID,0,VALID,87.1356,VALID,222.188,VALID,20.6569,VALID,153,VALID,0,
2013-07-27, 09:01:04,VALID,919.018,VALID,0,VALID,87.128,VALID,225.626,VALID,20.7349,VALID,141,VALID,0,
2013-07-27, 09:02:04,VALID,919.026,VALID,0,VALID,86.3657,VALID,228.312,VALID,20.7544,VALID,160,VALID,0,
2013-07-27, 09:03:04,VALID,918.977,VALID,0,VALID,86.6554,VALID,230.676,VALID,20.8129,VALID,125,VALID,0,
2013-07-27, 09:04:04,VALID,918.945,VALID,0,VALID,86.0455,VALID,231.751,VALID,20.8535,VALID,150,VALID,0,
2013-07-27, 09:05:04,VALID,918.923,VALID,0,VALID,86.419,VALID,233.255,VALID,20.8925,VALID,127,VALID,0,
2013-07-27, 09:06:04,VALID,918.963,VALID,0,VALID,87.2957,VALID,234.759,VALID,20.93,VALID,136,VALID,0,
2013-07-27, 09:07:04,VALID,918.983,VALID,0,VALID,86.7392,VALID,236.263,VALID,20.9706,VALID,150,VALID,0,
2013-07-27, 09:08:04,VALID,918.962,VALID,0,VALID,85.6948,VALID,237.552,VALID,20.9885,VALID,174,VALID,0,
2013-07-27, 09:09:04,VALID,918.93,VALID,0,VALID,85.1612,VALID,236.908,VALID,20.9869,VALID,175,VALID,0,
2013-07-27, 09:10:04,VALID,918.962,VALID,0,VALID,85.9159,VALID,234.544,VALID,21.0486,VALID,152,VALID,0,
2013-07-27, 09:11:04,VALID,918.972,VALID,0,VALID,84.7495,VALID,232.61,VALID,21.0665,VALID,168,VALID,0,
2013-07-27, 09:12:04,VALID,918.977,VALID,0,VALID,85.6033,VALID,231.321,VALID,21.047,VALID,168,VALID,0,
2013-07-27, 09:13:04,VALID,918.97,VALID,0,VALID,86.0531,VALID,231.321,VALID,21.086,VALID,168,VALID,0,
2013-07-27, 09:14:04,VALID,918.972,VALID,0,VALID,86.2285,VALID,232.825,VALID,21.086,VALID,172,VALID,0,
2013-07-27, 09:15:04,VALID,918.883,VALID,0,VALID,85.0163,VALID,234.007,VALID,21.0665,VALID,173,VALID,0,
2013-07-27, 09:16:04,VALID,918.926,VALID,0,VALID,85.1078,VALID,234.866,VALID,21.0275,VALID,184,VALID,0,
2013-07-27, 09:17:04,VALID,918.989,VALID,0,VALID,85.6415,VALID,236.048,VALID,21.0665,VALID,134,VALID,0,
2013-07-27, 09:18:04,VALID,919.032,VALID,0,VALID,85.9159,VALID,239.701,VALID,21.125,VALID,180,VALID,0,
2013-07-27, 09:19:04,VALID,918.916,VALID,0,VALID,84.6504,VALID,245.073,VALID,21.1445,VALID,170,VALID,0,
2013-07-27, 09:20:04,VALID,918.95,VALID,0,VALID,84.4979,VALID,249.908,VALID,21.1836,VALID,168,VALID,0,
2013-07-27, 09:21:04,VALID,919,VALID,0,VALID,85.4051,VALID,255.602,VALID,21.3396,VALID,168,VALID,0,
2013-07-27, 09:22:04,VALID,918.885,VALID,0,VALID,84.963,VALID,264.52,VALID,21.4177,VALID,173,VALID,0,
2013-07-27, 09:23:04,VALID,919.029,VALID,0,VALID,83.1029,VALID,271.719,VALID,21.5347,VALID,181,VALID,0,
2013-07-27, 09:24:04,VALID,918.963,VALID,0,VALID,83.9491,VALID,272.256,VALID,21.6891,VALID,181,VALID,0,
2013-07-27, 09:25:04,VALID,918.845,VALID,0,VALID,83.4459,VALID,268.066,VALID,21.8062,VALID,182,VALID,0,
2013-07-27, 09:26:04,VALID,918.96,VALID,0,VALID,83.0724,VALID,267.958,VALID,21.9249,VALID,185,VALID,0,
2013-07-27, 09:27:04,VALID,918.874,VALID,0,VALID,82.3253,VALID,268.173,VALID,22.0013,VALID,185,VALID,0,
2013-07-27, 09:28:04,VALID,918.95,VALID,0,VALID,82.6455,VALID,266.239,VALID,22.0794,VALID,178,VALID,0,
2013-07-27, 09:29:04,VALID,918.982,VALID,0,VALID,82.6455,VALID,263.983,VALID,22.1574,VALID,182,VALID,0,
2013-07-27, 09:30:04,VALID,919.118,VALID,0,VALID,83.0038,VALID,266.347,VALID,22.2176,VALID,181,VALID,0,
2013-07-27, 09:31:04,VALID,918.964,VALID,0,VALID,81.9517,VALID,269.57,VALID,22.1964,VALID,198,VALID,0,
2013-07-27, 09:32:04,VALID,919.051,VALID,0,VALID,80.5871,VALID,270.537,VALID,22.2354,VALID,184,VALID,0,
2013-07-27, 09:33:04,VALID,918.907,VALID,0,VALID,82.0203,VALID,270,VALID,22.3135,VALID,183,VALID,0,
2013-07-27, 09:34:04,VALID,918.997,VALID,0,VALID,80.5414,VALID,266.239,VALID,22.3525,VALID,186,VALID,0,
2013-07-27, 09:35:04,VALID,919.01,VALID,0,VALID,79.4055,VALID,260.437,VALID,22.3542,VALID,191,VALID,0,
2013-07-27, 09:36:04,VALID,918.91,VALID,0,VALID,80.1602,VALID,254.313,VALID,22.3737,VALID,173,VALID,0,
2013-07-27, 09:37:04,VALID,919.015,VALID,0,VALID,80.1374,VALID,251.09,VALID,22.3542,VALID,178,VALID,0,
2013-07-27, 09:38:04,VALID,919.07,VALID,0,VALID,80.6481,VALID,252.272,VALID,22.3542,VALID,180,VALID,0,
2013-07-27, 09:39:04,VALID,919.034,VALID,0,VALID,80.5109,VALID,257.966,VALID,22.3525,VALID,190,VALID,0,
2013-07-27, 09:40:04,VALID,919.054,VALID,0,VALID,80.9073,VALID,270.429,VALID,22.3916,VALID,194,VALID,0,
2013-07-27, 09:41:04,VALID,919.061,VALID,0,VALID,81.906,VALID,285.256,VALID,22.4518,VALID,197,VALID,0,
2013-07-27, 09:42:04,VALID,919.079,VALID,0,VALID,81.2656,VALID,299.761,VALID,22.5299,VALID,185,VALID,0,
2013-07-27, 09:43:04,VALID,919.063,VALID,0,VALID,80.8387,VALID,306.852,VALID,22.5494,VALID,188,VALID,0,
2013-07-27, 09:44:04,VALID,919.049,VALID,0,VALID,81.8145,VALID,304.918,VALID,22.686,VALID,187,VALID,0,
2013-07-27, 09:45:04,VALID,919.059,VALID,0,VALID,80.9531,VALID,299.438,VALID,22.7641,VALID,174,VALID,0,
2013-07-27, 09:46:04,VALID,919.098,VALID,0,VALID,79.3216,VALID,294.496,VALID,22.686,VALID,160,VALID,0,
2013-07-27, 09:47:04,VALID,919.103,VALID,0,VALID,80.7015,VALID,292.67,VALID,22.5884,VALID,167,VALID,0,
2013-07-27, 09:48:04,VALID,919.108,VALID,0,VALID,81.2122,VALID,295.463,VALID,22.6079,VALID,155,VALID,0,
2013-07-27, 09:49:04,VALID,919.164,VALID,0,VALID,79.7943,VALID,302.984,VALID,22.6274,VALID,164,VALID,0,
2013-07-27, 09:50:04,VALID,919.149,VALID,0,VALID,80.1297,VALID,312.761,VALID,22.647,VALID,176,VALID,0,
2013-07-27, 09:51:04,VALID,919.187,VALID,0,VALID,80.6557,VALID,317.274,VALID,22.7055,VALID,164,VALID,0,
2013-07-27, 09:52:04,VALID,919.164,VALID,0,VALID,80.2822,VALID,322.968,VALID,22.7641,VALID,182,VALID,0,
2013-07-27, 09:53:04,VALID,919.209,VALID,0,VALID,79.8477,VALID,328.662,VALID,22.8031,VALID,174,VALID,0,
2013-07-27, 09:54:04,VALID,919.177,VALID,0,VALID,78.91,VALID,334.894,VALID,22.8031,VALID,161,VALID,0,
2013-07-27, 09:55:04,VALID,919.174,VALID,0,VALID,79.0777,VALID,342.2,VALID,22.8421,VALID,161,VALID,0,
2013-07-27, 09:56:04,VALID,919.119,VALID,0,VALID,78.8871,VALID,348.432,VALID,22.8421,VALID,163,VALID,0,
2013-07-27, 09:57:04,VALID,919.106,VALID,0,VALID,78.4983,VALID,353.911,VALID,22.7641,VALID,204,VALID,0,
2013-07-27, 09:58:04,VALID,919.08,VALID,0,VALID,78.7346,VALID,359.068,VALID,22.8616,VALID,181,VALID,0,
2013-07-27, 09:59:04,VALID,919.074,VALID,0,VALID,78.4145,VALID,367.771,VALID,22.8989,VALID,168,VALID,0,
2013-07-27, 10:00:04,VALID,919.067,VALID,0,VALID,78.3458,VALID,372.821,VALID,22.8421,VALID,160,VALID,0,
2013-07-27, 10:01:04,VALID,919.056,VALID,0,VALID,78.727,VALID,369.383,VALID,22.8031,VALID,157,VALID,0,
2013-07-27, 10:02:04,VALID,919.05,VALID,0,VALID,77.3929,VALID,364.87,VALID,22.8014,VALID,173,VALID,0,
2013-07-27, 10:03:04,VALID,919.064,VALID,0,VALID,77.3014,VALID,360.465,VALID,22.8404,VALID,169,VALID,0,
2013-07-27, 10:04:04,VALID,919.087,VALID,0,VALID,76.6611,VALID,356.275,VALID,22.8794,VALID,170,VALID,0,
2013-07-27, 10:05:04,VALID,919.083,VALID,0,VALID,77.37,VALID,356.705,VALID,23.0178,VALID,187,VALID,0,
2013-07-27, 10:06:04,VALID,919.085,VALID,0,VALID,78.6813,VALID,363.903,VALID,23.1154,VALID,140,VALID,0,
2013-07-27, 10:07:04,VALID,919.08,VALID,0,VALID,77.7055,VALID,376.796,VALID,23.1739,VALID,165,VALID,0,
2013-07-27, 10:08:04,VALID,919.095,VALID,0,VALID,78.2925,VALID,393.449,VALID,23.252,VALID,136,VALID,0,
2013-07-27, 10:09:04,VALID,919.127,VALID,0,VALID,76.4019,VALID,413.326,VALID,23.2325,VALID,149,VALID,0,
2013-07-27, 10:10:04,VALID,919.169,VALID,0,VALID,77.3929,VALID,434.062,VALID,23.2698,VALID,139,VALID,0,
2013-07-27, 10:11:04,VALID,919.15,VALID,0,VALID,76.783,VALID,458.129,VALID,23.2502,VALID,170,VALID,0,
2013-07-27, 10:12:04,VALID,919.167,VALID,0,VALID,75.6548,VALID,425.037,VALID,23.1917,VALID,149,VALID,0,
2013-07-27, 10:13:04,VALID,919.137,VALID,0,VALID,76.1046,VALID,408.599,VALID,23.2325,VALID,134,VALID,0,
2013-07-27, 10:14:04,VALID,919.162,VALID,0,VALID,77.7207,VALID,400.111,VALID,23.2502,VALID,176,VALID,0,
2013-07-27, 10:15:04,VALID,919.195,VALID,0,VALID,75.8987,VALID,399.359,VALID,23.2715,VALID,152,VALID,0,
2013-07-27, 10:16:04,VALID,919.189,VALID,0,VALID,75.022,VALID,404.731,VALID,23.3283,VALID,177,VALID,0,
2013-07-27, 10:17:04,VALID,919.171,VALID,0,VALID,75.0906,VALID,412.252,VALID,23.3088,VALID,143,VALID,0,
2013-07-27, 10:18:04,VALID,919.148,VALID,0,VALID,75.144,VALID,415.045,VALID,23.3674,VALID,151,VALID,0,
2013-07-27, 10:19:04,VALID,919.132,VALID,0,VALID,74.8543,VALID,414.938,VALID,23.4064,VALID,166,VALID,0,
2013-07-27, 10:20:04,VALID,919.132,VALID,0,VALID,76.4019,VALID,408.491,VALID,23.3869,VALID,135,VALID,0,
2013-07-27, 10:21:04,VALID,919.127,VALID,0,VALID,75.2202,VALID,396.136,VALID,23.4259,VALID,171,VALID,0,
2013-07-27, 10:22:04,VALID,919.09,VALID,0,VALID,76.0283,VALID,382.598,VALID,23.504,VALID,185,VALID,0,
2013-07-27, 10:23:04,VALID,919.086,VALID,0,VALID,75.0906,VALID,374.325,VALID,23.6016,VALID,160,VALID,0,
2013-07-27, 10:24:04,VALID,919.027,VALID,0,VALID,75.0449,VALID,369.275,VALID,23.6602,VALID,157,VALID,0,
2013-07-27, 10:25:04,VALID,918.997,VALID,0,VALID,76.4247,VALID,364.655,VALID,23.7773,VALID,166,VALID,0,
2013-07-27, 10:26:04,VALID,919.003,VALID,0,VALID,75.1669,VALID,360.895,VALID,23.8944,VALID,157,VALID,0,
2013-07-27, 10:27:04,VALID,918.972,VALID,0,VALID,74.5113,VALID,358.961,VALID,23.953,VALID,162,VALID,0,
2013-07-27, 10:28:04,VALID,918.998,VALID,0,VALID,74.4274,VALID,357.672,VALID,23.9725,VALID,158,VALID,0,
2013-07-27, 10:29:04,VALID,918.994,VALID,0,VALID,72.5368,VALID,359.283,VALID,24.0292,VALID,157,VALID,0,
2013-07-27, 10:30:04,VALID,918.979,VALID,0,VALID,72.9637,VALID,364.118,VALID,24.1873,VALID,157,VALID,0,
2013-07-27, 10:31:04,VALID,918.99,VALID,0,VALID,72.1861,VALID,372.821,VALID,24.3239,VALID,145,VALID,0,
2013-07-27, 10:32:04,VALID,918.995,VALID,0,VALID,71.7287,VALID,383.995,VALID,24.3026,VALID,121,VALID,0,
2013-07-27, 10:33:04,VALID,918.998,VALID,0,VALID,70.5395,VALID,386.036,VALID,24.1854,VALID,114,VALID,0,
2013-07-27, 10:34:04,VALID,918.973,VALID,0,VALID,72.4606,VALID,385.929,VALID,24.2068,VALID,114,VALID,0,
2013-07-27, 10:35:04,VALID,918.998,VALID,0,VALID,75.2279,VALID,384.854,VALID,24.3221,VALID,116,VALID,0,
2013-07-27, 10:36:04,VALID,919.02,VALID,0,VALID,73.566,VALID,383.135,VALID,24.2635,VALID,117,VALID,0,
2013-07-27, 10:37:04,VALID,919.016,VALID,0,VALID,74.0691,VALID,379.804,VALID,24.3044,VALID,157,VALID,0,